Location: *
(46.3500°N, 10.9000°E)
Time: 18:52:11
(UTC+00:00)

Aureole 1 Rocket - Pass Details

Date: 09 April 2020
Orbit: 379 x 1379 km, 73.9° (Epoch: 02 June)

Event Time Altitude Azimuth Distance (km) Brightness Sun altitude
Rises 18:35:35 0° 192° (SSW) 4,210 7.2 -7.3°
Reaches altitude 10° 18:38:36 10° 190° (S) 3,136 6.5 -7.8°
Maximum altitude 18:45:58 70° 109° (ESE) 1,076 4.1 -9.0°
Drops below altitude 10° 18:51:42 10° 27° (NNE) 2,464 6.1 -9.9°
Sets 18:53:50 0° 25° (NNE) 3,260 6.7 -10.2°
